Simultaneous Nadir Overpasses (SNOs) Predictions

Prediction of SNOs between GOES-15 and NPP Satellite Orbit:

Table of predicted SNOs for the next 14.0 days since TLE Epoch: 2/24/2018
Index Date Time (GOES-15) GOES-15 Lat,Lon NPP Lat,Lon Distance(km) Time Diff (sec)
1 02/25/2018 10:17:50 0.01,-135.42 -0.39,-133.63 204.09 80
2 02/26/2018 22:42:25 -0.01,-135.39 -0.79,-138.93 403.10 80
3 02/27/2018 22:21:00 -0.01,-135.38 0.22,-134.40 112.63 80
4 03/01/2018 10:45:26 0.01,-135.39 0.95,-139.66 486.87 80
5 03/02/2018 10:24:01 0.01,-135.38 -0.06,-135.13 28.71 80
6 03/04/2018 22:29:50 -0.01,-135.33 -0.16,-135.88 63.73 80
7 03/05/2018 22:08:25 -0.01,-135.31 0.91,-131.36 451.64 80
8 03/07/2018 10:32:50 0.01,-135.31 0.32,-136.61 148.61 80
9 03/08/2018 10:11:25 0.01,-135.29 -0.69,-132.08 366.33 80
10 03/09/2018 22:36:00 -0.01,-135.25 -0.48,-137.38 242.50 80




NCC Satellite Simultaneous Nadir Overpasses (SNOs) Prediction Service
